Dundee, United Kingdom

1:08 AM GMT on March 24, 2017 (GMT +0000)
Dundee

Weather History for EGPN - July, 2013

Change the Weather History Date:

Sunday, July 28, 2013

  Actual Average Record
Temperature  
Mean Temperature 62 °F -  
Max Temperature 66 °F 65 °F 78 °F (2006)
Min Temperature 57 °F 55 °F 51 °F (2014)
Degree Days  
Heating Degree Days 4    
Growing Degree Days 12 (Base 50)    
Moisture  
Dew Point 57 °F    
Average Humidity 86    
Maximum Humidity 94    
Minimum Humidity 77    
Precipitation  
Precipitation 0.00 in - - ()
Sea Level Pressure  
Sea Level Pressure 29.52 in    
Wind  
Wind Speed 8 mph ()    
Max Wind Speed 18 mph    
Max Gust Speed -    
Visibility 6.0 miles    
Events Rain    
Averages and records for this station are not official NWS values.
T = Trace of Precipitation, MM = Missing Value Source: Averaged Metar Reports

Daily Weather History Graph

Daily Weather History Graph

Search for Another Location

Airport or City:

Trip Planner

Search our weather history database for the weather conditions in past years. The results will help you decide how hot, cold, wet, or windy it might be!

Date:

Astronomy

Jul. 28, 2013 Rise Set
Actual Time 5:06 AM BST 9:29 PM BST
Civil Twilight 4:15 AM BST 10:20 PM BST
Nautical Twilight 2:53 AM BST 11:40 PM BST
Astronomical Twilight Sun does not rise Sun does not rise
Moon 11:10 PM BST (7/28) 1:02 PM BST (7/28)
Length of Visible Light 18h 05m
Length of Day
16h 23m
Waning Gibbous, 63% of the Moon is Illuminated
Jul 28
Waning Gibbous
Jul 29
Last Quarter
Aug 6
New
Aug 14
First Quarter
Aug 21
Full

Hourly Weather History & Observations

Time (BST) Temp. Dew Point Humidity Pressure Visibility Wind Dir Wind Speed Gust Speed Precip Events Conditions
9:20 AM 59.0 °F 57.2 °F 94% 29.50 in 3.7 mi NNW 4.6 mph - N/A Rain Heavy Rain
9:50 AM 59.0 °F 57.2 °F 94% 29.50 in 4.3 mi NW 6.9 mph - N/A Rain Heavy Rain
10:20 AM 59.0 °F 57.2 °F 94% 29.50 in 5.0 mi NW 8.1 mph - N/A Rain Rain
10:50 AM 59.0 °F 55.4 °F 88% 29.50 in 6.2 mi NNW 8.1 mph - N/A Rain Rain
11:20 AM 57.2 °F 55.4 °F 94% 29.47 in 6.2 mi NW 9.2 mph - N/A Rain Rain
11:50 AM 57.2 °F 55.4 °F 94% 29.47 in 6.2 mi West 9.2 mph - N/A Rain Rain
12:20 PM 59.0 °F 55.4 °F 88% 29.50 in 6.2 mi West 8.1 mph - N/A Rain Rain
12:50 PM 59.0 °F 55.4 °F 88% 29.50 in 6.2 mi West 10.4 mph - N/A Rain Rain
1:20 PM 59.0 °F 55.4 °F 88% 29.50 in 6.2 mi West 9.2 mph - N/A Rain Light Rain
1:50 PM 59.0 °F 57.2 °F 94% 29.50 in 6.2 mi West 9.2 mph - N/A Rain Light Rain
2:20 PM 59.0 °F 57.2 °F 94% 29.50 in 6.2 mi West 9.2 mph - N/A Rain Rain
2:50 PM 62.6 °F 59.0 °F 88% 29.50 in 6.2 mi WSW 11.5 mph - N/A Rain Light Rain
3:20 PM 62.6 °F 57.2 °F 82% 29.50 in 6.2 mi WSW 15.0 mph - N/A Rain Light Rain
3:50 PM 62.6 °F 57.2 °F 82% 29.50 in 6.2 mi WSW 16.1 mph - N/A   Mostly Cloudy
4:20 PM 64.4 °F 59.0 °F 83% 29.50 in 6.2 mi WSW 16.1 mph - N/A   Mostly Cloudy
4:50 PM 60.8 °F 57.2 °F 88% 29.53 in 6.2 mi WNW 8.1 mph - N/A   Mostly Cloudy
5:20 PM 66.2 °F 60.8 °F 83% 29.53 in 6.2 mi WSW 11.5 mph - N/A   Scattered Clouds
5:50 PM 64.4 °F 57.2 °F 77% 29.53 in 6.2 mi WSW 18.4 mph - N/A   Scattered Clouds
6:20 PM 64.4 °F 57.2 °F 77% 29.53 in 6.2 mi WSW 16.1 mph - N/A   Mostly Cloudy
6:50 PM 64.4 °F 57.2 °F 77% 29.53 in 6.2 mi WSW 15.0 mph - N/A   Mostly Cloudy
7:20 PM 64.4 °F 57.2 °F 77% 29.56 in 6.2 mi WSW 15.0 mph - N/A   Scattered Clouds
7:50 PM 62.6 °F 57.2 °F 82% 29.56 in 6.2 mi WSW 10.4 mph - N/A   Scattered Clouds
8:20 PM 64.4 °F 57.2 °F 77% 29.56 in 6.2 mi WSW 11.5 mph - N/A   Partly Cloudy
8:50 PM 62.6 °F 57.2 °F 82% 29.59 in 6.2 mi West 5.8 mph - N/A   Partly Cloudy
9:20 PM 60.8 °F 57.2 °F 88% 29.59 in 6.2 mi NW 3.5 mph - N/A   Scattered Clouds
9:50 PM 60.8 °F 57.2 °F 88% 29.59 in 6.2 mi NNW 1.2 mph - N/A   Scattered Clouds